Weather History for Fayetteville, AR

Change the Weather History Date:

Sunday, January 13, 2013

  Actual Average Record
Temperature  
Mean Temperature 28 °F 35 °F  
Max Temperature 32 °F 46 °F 72 °F (1983)
Min Temperature 23 °F 25 °F -2 °F (1964)
Degree Days  
Heating Degree Days 37 30  
Month to date heating degree days 351 390  
Since 1 July heating degree days 1869 2073  
Moisture  
Dew Point 19 °F    
Average Humidity 84    
Maximum Humidity 100    
Minimum Humidity 68    
Precipitation  
Precipitation T in 0.09 in 1.87 in (2007)
Month to date precipitation 0.35 1.21  
Year to date precipitation 0.35 1.21  
Sea Level Pressure  
Sea Level Pressure 30.19 in    
Wind  
Wind Speed 11 mph (NNW)    
Max Wind Speed 17 mph    
Max Gust Speed 23 mph    
Visibility 10 miles    
Events      
T = Trace of Precipitation, MM = Missing Value Source: NWS Daily Summary

Daily Weather History Graph

Daily Weather History Graph

Search for Another Location

Airport:

Trip Planner

Search our weather history database for the weather conditions in past years. The results will help you decide how hot, cold, wet, or windy it might be!

Date:

Astronomy

Jan. 13, 2013 Rise Set
Actual Time 7:27 AM CST 5:24 PM CST
Civil Twilight 6:59 AM CST 5:52 PM CST
Nautical Twilight 6:27 AM CST 6:23 PM CST
Astronomical Twilight 5:56 AM CST 6:54 PM CST
Moon 8:31 AM CST (1/13) 7:57 PM CST (1/13)
Length of Visible Light 10h 53m
Length of Day
9h 57m
Waxing Crescent, 5% of the Moon is Illuminated
Jan 13
Waxing Crescent
Jan 18
First Quarter
Jan 26
Full
Feb 3
Last Quarter
Feb 10
New

Hourly Weather History & Observations

Time (CST) Temp. Windchill Dew Point Humidity Pressure Visibility Wind Dir Wind Speed Gust Speed Precip Events Conditions
12:53 AM 30.9 °F 19.8 °F 30.0 °F 96% 29.96 in 10.0 mi NNW 16.1 mph 19.6 mph N/A   Overcast
1:25 AM 30.2 °F 19.8 °F 26.6 °F 86% 29.97 in 10.0 mi North 13.8 mph 21.9 mph N/A   Overcast
1:53 AM 28.9 °F 16.9 °F 27.0 °F 92% 30.01 in 10.0 mi North 17.3 mph 23.0 mph N/A   Overcast
2:53 AM 27.0 °F 18.7 °F 25.0 °F 92% 30.00 in 10.0 mi North 8.1 mph - N/A   Overcast
3:53 AM 27.0 °F 16.7 °F 24.1 °F 89% 30.04 in 10.0 mi North 11.5 mph 18.4 mph N/A   Overcast
4:53 AM 25.0 °F 13.6 °F 21.9 °F 88% 30.07 in 10.0 mi NNW 12.7 mph - N/A   Overcast
5:15 AM 24.8 °F 13.4 °F 19.4 °F 80% 30.06 in 10.0 mi NNW 12.7 mph - N/A   Overcast
5:53 AM 24.1 °F 13.7 °F 18.0 °F 77% 30.08 in 7.0 mi North 10.4 mph 17.3 mph N/A   Overcast
6:53 AM 24.1 °F 14.4 °F 18.0 °F 77% 30.10 in 10.0 mi North 9.2 mph - N/A   Overcast
7:53 AM 24.1 °F 13.7 °F 19.0 °F 81% 30.15 in 10.0 mi NNW 10.4 mph - N/A   Overcast
8:53 AM 23.0 °F 14.7 °F 19.0 °F 85% 30.21 in 10.0 mi NNW 6.9 mph - 0.00 in   Overcast
9:53 AM 23.0 °F 13.9 °F 18.0 °F 81% 30.22 in 10.0 mi North 8.1 mph 18.4 mph N/A   Overcast
10:53 AM 24.1 °F 15.2 °F 19.0 °F 81% 30.22 in 10.0 mi NNW 8.1 mph - N/A   Overcast
11:53 AM 25.0 °F 15.5 °F 19.9 °F 81% 30.21 in 10.0 mi NW 9.2 mph - N/A   Overcast
12:53 PM 26.1 °F 15.6 °F 18.0 °F 71% 30.22 in 10.0 mi NNW 11.5 mph - N/A   Overcast
1:53 PM 25.0 °F 14.8 °F 17.1 °F 72% 30.24 in 10.0 mi North 10.4 mph - N/A   Mostly Cloudy
2:53 PM 27.0 °F 16.7 °F 19.0 °F 72% 30.25 in 10.0 mi NNW 11.5 mph - N/A   Partly Cloudy
3:53 PM 26.1 °F 15.0 °F 18.0 °F 71% 30.27 in 10.0 mi NNW 12.7 mph - N/A   Clear
4:53 PM 25.0 °F 18.1 °F 17.1 °F 72% 30.27 in 10.0 mi North 5.8 mph - N/A   Clear
5:53 PM 23.0 °F 15.8 °F 17.1 °F 78% 30.28 in 10.0 mi North 5.8 mph - N/A   Clear
6:53 PM 21.9 °F 17.2 °F 17.1 °F 82% 30.30 in 10.0 mi North 3.5 mph - N/A   Clear
7:53 PM 21.0 °F 14.6 °F 17.1 °F 85% 30.30 in 10.0 mi North 4.6 mph - N/A   Clear
8:53 PM 19.9 °F 13.4 °F 17.1 °F 89% 30.32 in 10.0 mi North 4.6 mph - N/A   Clear
9:53 PM 19.9 °F 13.4 °F 14.0 °F 78% 30.34 in 10.0 mi North 4.6 mph - N/A   Clear
10:53 PM 18.0 °F - 14.0 °F 84% 30.36 in 10.0 mi Calm Calm - N/A   Clear
11:53 PM 18.0 °F - 12.9 °F 81% 30.39 in 10.0 mi Calm Calm - N/A   Clear